Time,TemperatureF,DewpointF,PressureIn,WindDirection,WindDirectionDegrees,WindSpeedMPH,WindSpeedGustMPH,Humidity,HourlyPrecipIn,Conditions,Clouds,dailyrainin,SoftwareType,DateUTC
2015-07-05 00:03:00,82.0,74.0,30.14,ESE,113,0.0,2.0,77,-99.99,,,-99.99,,2015-07-05 04:03:00,
2015-07-05 00:13:00,82.0,74.0,30.14,ESE,113,0.0,3.0,77,-99.99,,,-99.99,,2015-07-05 04:13:00,
2015-07-05 00:23:00,81.0,73.0,30.14,ESE,113,0.0,1.0,77,-99.99,,,-99.99,,2015-07-05 04:23:00,
2015-07-05 00:33:00,81.0,73.0,30.14,ESE,113,0.0,1.0,77,-99.99,,,-99.99,,2015-07-05 04:33:00,
2015-07-05 00:43:00,81.0,73.0,30.14,ESE,113,0.0,1.0,77,-99.99,,,-99.99,,2015-07-05 04:43:00,
2015-07-05 00:53:00,81.0,73.0,30.14,ESE,113,0.0,1.0,77,-99.99,,,-99.99,,2015-07-05 04:53:00,
2015-07-05 01:03:00,81.0,73.0,30.14,ESE,113,0.0,1.0,77,-99.99,,,-99.99,,2015-07-05 05:03:00,
2015-07-05 01:13:00,81.0,73.0,30.14,ESE,113,0.0,0.0,77,-99.99,,,-99.99,,2015-07-05 05:13:00,
2015-07-05 01:23:00,80.0,72.0,30.14,ESE,113,0.0,1.0,77,-99.99,,,-99.99,,2015-07-05 05:23:00,
2015-07-05 01:33:00,80.0,72.0,30.14,ESE,113,0.0,1.0,77,-99.99,,,-99.99,,2015-07-05 05:33:00,
2015-07-05 01:43:00,80.0,72.0,30.13,ESE,113,0.0,1.0,77,-99.99,,,-99.99,,2015-07-05 05:43:00,
2015-07-05 01:53:00,80.0,72.0,30.13,ESE,113,0.0,2.0,77,-99.99,,,-99.99,,2015-07-05 05:53:00,
2015-07-05 02:03:00,80.0,72.0,30.13,ESE,113,0.0,2.0,77,-99.99,,,-99.99,,2015-07-05 06:03:00,
2015-07-05 02:13:00,80.0,72.0,30.12,ESE,113,0.0,1.0,77,-99.99,,,-99.99,,2015-07-05 06:13:00,
2015-07-05 02:23:00,80.0,72.0,30.12,ESE,113,0.0,3.0,77,-99.99,,,-99.99,,2015-07-05 06:23:00,
2015-07-05 02:33:00,80.0,72.0,30.12,ESE,113,0.0,3.0,77,-99.99,,,-99.99,,2015-07-05 06:33:00,
2015-07-05 02:44:00,80.0,72.0,30.12,ESE,113,0.0,2.0,77,-99.99,,,-99.99,,2015-07-05 06:44:00,
2015-07-05 03:03:00,80.0,72.0,30.12,ESE,113,0.0,1.0,77,-99.99,,,-99.99,,2015-07-05 07:03:00,
2015-07-05 03:13:00,80.0,72.0,30.11,ESE,113,0.0,1.0,77,-99.99,,,-99.99,,2015-07-05 07:13:00,
2015-07-05 03:23:00,80.0,72.0,30.11,ESE,113,0.0,0.0,77,-99.99,,,-99.99,,2015-07-05 07:23:00,
2015-07-05 03:33:00,80.0,72.0,30.11,ESE,113,0.0,0.0,77,-99.99,,,-99.99,,2015-07-05 07:33:00,
2015-07-05 03:44:00,80.0,72.0,30.11,ESE,113,0.0,1.0,77,-99.99,,,-99.99,,2015-07-05 07:44:00,
2015-07-05 03:53:00,79.0,71.0,30.11,ESE,113,0.0,0.0,77,-99.99,,,-99.99,,2015-07-05 07:53:00,
2015-07-05 04:03:00,79.0,71.0,30.11,ESE,113,0.0,0.0,77,-99.99,,,-99.99,,2015-07-05 08:03:00,
2015-07-05 04:13:00,78.0,70.0,30.11,ESE,113,0.0,0.0,77,-99.99,,,-99.99,,2015-07-05 08:13:00,
2015-07-05 04:23:00,78.0,70.0,30.11,ESE,113,0.0,0.0,77,-99.99,,,-99.99,,2015-07-05 08:23:00,
2015-07-05 04:33:00,78.0,70.0,30.11,ESE,113,0.0,0.0,77,-99.99,,,-99.99,,2015-07-05 08:33:00,
2015-07-05 04:43:00,77.0,69.0,30.11,ESE,113,0.0,0.0,77,-99.99,,,-99.99,,2015-07-05 08:43:00,
2015-07-05 04:53:00,77.0,69.0,30.11,ESE,113,0.0,0.0,77,-99.99,,,-99.99,,2015-07-05 08:53:00,
2015-07-05 05:03:00,77.0,69.0,30.11,ESE,113,0.0,0.0,77,-99.99,,,-99.99,,2015-07-05 09:03:00,
2015-07-05 05:13:00,77.0,69.0,30.11,ESE,113,0.0,0.0,77,-99.99,,,-99.99,,2015-07-05 09:13:00,
2015-07-05 05:23:00,77.0,69.0,30.11,ESE,113,0.0,0.0,77,-99.99,,,-99.99,,2015-07-05 09:23:00,
2015-07-05 05:34:00,77.0,69.0,30.11,ESE,113,0.0,0.0,77,-99.99,,,-99.99,,2015-07-05 09:34:00,
2015-07-05 05:43:00,77.0,69.0,30.11,ESE,113,0.0,1.0,77,-99.99,,,-99.99,,2015-07-05 09:43:00,
2015-07-05 05:53:00,77.0,69.0,30.11,ESE,113,0.0,0.0,77,-99.99,,,-99.99,,2015-07-05 09:53:00,
2015-07-05 06:03:00,77.0,69.0,30.11,ESE,113,0.0,0.0,77,-99.99,,,-99.99,,2015-07-05 10:03:00,
2015-07-05 06:13:00,77.0,69.0,30.11,ESE,113,0.0,2.0,77,-99.99,,,-99.99,,2015-07-05 10:13:00,
2015-07-05 06:23:00,78.0,70.0,30.11,ESE,113,0.0,1.0,77,-99.99,,,-99.99,,2015-07-05 10:23:00,
2015-07-05 06:33:00,78.0,70.0,30.11,ESE,113,0.0,1.0,77,-99.99,,,-99.99,,2015-07-05 10:33:00,
2015-07-05 06:43:00,77.0,69.0,30.13,ESE,113,0.0,0.0,77,-99.99,,,-99.99,,2015-07-05 10:43:00,
2015-07-05 06:53:00,77.0,69.0,30.12,ESE,113,0.0,0.0,77,-99.99,,,-99.99,,2015-07-05 10:53:00,
2015-07-05 07:03:00,77.0,69.0,30.12,ESE,113,0.0,0.0,77,-99.99,,,-99.99,,2015-07-05 11:03:00,
2015-07-05 07:13:00,77.0,69.0,30.13,ESE,113,0.0,0.0,77,-99.99,,,-99.99,,2015-07-05 11:13:00,
2015-07-05 07:23:00,77.0,69.0,30.13,ESE,113,0.0,0.0,77,-99.99,,,-99.99,,2015-07-05 11:23:00,
2015-07-05 07:33:00,77.0,69.0,30.13,ESE,113,0.0,0.0,77,-99.99,,,-99.99,,2015-07-05 11:33:00,
2015-07-05 07:44:00,77.0,69.0,30.14,ESE,113,0.0,0.0,76,-99.99,,,-99.99,,2015-07-05 11:44:00,
2015-07-05 07:54:00,78.0,70.0,30.14,ESE,113,0.0,0.0,76,-99.99,,,-99.99,,2015-07-05 11:54:00,
2015-07-05 08:03:00,78.0,70.0,30.14,ESE,113,0.0,0.0,76,-99.99,,,-99.99,,2015-07-05 12:03:00,
2015-07-05 08:13:00,80.0,72.0,30.14,ESE,113,0.0,2.0,77,-99.99,,,-99.99,,2015-07-05 12:13:00,
2015-07-05 08:23:00,83.0,75.0,30.14,ESE,113,1.0,6.0,77,-99.99,,,-99.99,,2015-07-05 12:23:00,
2015-07-05 08:33:00,83.0,75.0,30.14,ESE,113,1.0,6.0,77,-99.99,,,-99.99,,2015-07-05 12:33:00,
2015-07-05 08:44:00,84.0,75.0,30.15,ESE,113,0.0,6.0,75,-99.99,,,-99.99,,2015-07-05 12:44:00,
2015-07-05 08:54:00,85.0,75.0,30.15,SSW,203,2.0,7.0,73,-99.99,,,-99.99,,2015-07-05 12:54:00,
2015-07-05 09:03:00,85.0,75.0,30.15,SSW,203,2.0,7.0,73,-99.99,,,-99.99,,2015-07-05 13:03:00,
2015-07-05 09:13:00,86.0,76.0,30.16,SSE,165,3.0,8.0,72,-99.99,,,-99.99,,2015-07-05 13:13:00,
2015-07-05 09:23:00,86.0,75.0,30.16,ESE,109,3.0,9.0,71,-99.99,,,-99.99,,2015-07-05 13:23:00,
2015-07-05 09:33:00,86.0,75.0,30.16,ESE,109,3.0,9.0,71,-99.99,,,-99.99,,2015-07-05 13:33:00,
2015-07-05 09:43:00,86.0,75.0,30.16,SSE,156,3.0,9.0,70,-99.99,,,-99.99,,2015-07-05 13:43:00,
2015-07-05 09:53:00,86.0,75.0,30.16,SSE,150,2.0,7.0,70,-99.99,,,-99.99,,2015-07-05 13:53:00,
2015-07-05 10:03:00,86.0,75.0,30.16,SSE,150,2.0,7.0,70,-99.99,,,-99.99,,2015-07-05 14:03:00,
2015-07-05 10:13:00,87.0,76.0,30.16,East,92,2.0,8.0,70,-99.99,,,-99.99,,2015-07-05 14:13:00,
2015-07-05 10:23:00,88.0,77.0,30.17,South,184,1.0,5.0,70,-99.99,,,-99.99,,2015-07-05 14:23:00,
2015-07-05 10:34:00,88.0,77.0,30.17,South,184,1.0,5.0,70,-99.99,,,-99.99,,2015-07-05 14:34:00,
2015-07-05 10:43:00,89.0,77.0,30.17,East,90,3.0,8.0,68,-99.99,,,-99.99,,2015-07-05 14:43:00,
2015-07-05 10:53:00,88.0,76.0,30.17,ESE,108,1.0,7.0,68,-99.99,,,-99.99,,2015-07-05 14:53:00,
2015-07-05 11:03:00,88.0,76.0,30.17,ESE,108,1.0,7.0,68,-99.99,,,-99.99,,2015-07-05 15:03:00,
2015-07-05 11:13:00,89.0,77.0,30.17,SSW,196,2.0,7.0,68,-99.99,,,-99.99,,2015-07-05 15:13:00,
2015-07-05 11:23:00,89.0,77.0,30.18,SSW,194,2.0,5.0,67,-99.99,,,-99.99,,2015-07-05 15:23:00,
2015-07-05 11:33:00,89.0,77.0,30.18,SSW,194,2.0,5.0,67,-99.99,,,-99.99,,2015-07-05 15:33:00,
2015-07-05 11:44:00,88.0,77.0,30.17,East,96,3.0,10.0,69,-99.99,,,-99.99,,2015-07-05 15:44:00,
2015-07-05 11:53:00,88.0,77.0,30.18,SSW,196,7.0,11.0,70,-99.99,,,-99.99,,2015-07-05 15:53:00,
2015-07-05 12:03:00,88.0,77.0,30.18,SSW,196,7.0,11.0,70,-99.99,,,-99.99,,2015-07-05 16:03:00,
2015-07-05 12:13:00,88.0,75.0,30.17,ESE,116,4.0,11.0,66,-99.99,,,-99.99,,2015-07-05 16:13:00,
2015-07-05 12:24:00,89.0,75.0,30.17,ESE,107,3.0,8.0,64,-99.99,,,-99.99,,2015-07-05 16:24:00,
2015-07-05 12:34:00,89.0,75.0,30.17,ESE,107,3.0,8.0,64,-99.99,,,-99.99,,2015-07-05 16:34:00,
2015-07-05 12:44:00,89.0,75.0,30.17,SE,140,3.0,10.0,63,-99.99,,,-99.99,,2015-07-05 16:44:00,
2015-07-05 12:53:00,90.0,76.0,30.16,SE,142,3.0,10.0,63,-99.99,,,-99.99,,2015-07-05 16:53:00,
2015-07-05 13:04:00,90.0,76.0,30.16,SE,142,3.0,10.0,63,-99.99,,,-99.99,,2015-07-05 17:04:00,
2015-07-05 13:13:00,90.0,77.0,30.16,ESE,117,1.0,9.0,66,-99.99,,,-99.99,,2015-07-05 17:13:00,
2015-07-05 13:23:00,89.0,76.0,30.16,SE,141,3.0,9.0,65,-99.99,,,-99.99,,2015-07-05 17:23:00,
2015-07-05 13:34:00,89.0,76.0,30.16,SE,141,3.0,9.0,65,-99.99,,,-99.99,,2015-07-05 17:34:00,
2015-07-05 13:44:00,89.0,77.0,30.15,East,95,4.0,11.0,67,-99.99,,,-99.99,,2015-07-05 17:44:00,
2015-07-05 13:53:00,90.0,77.0,30.15,ESE,107,4.0,12.0,66,-99.99,,,-99.99,,2015-07-05 17:53:00,
2015-07-05 14:04:00,90.0,77.0,30.15,ESE,107,4.0,12.0,66,-99.99,,,-99.99,,2015-07-05 18:04:00,
2015-07-05 14:13:00,90.0,77.0,30.14,SSW,200,4.0,11.0,65,-99.99,,,-99.99,,2015-07-05 18:13:00,
2015-07-05 14:23:00,90.0,76.0,30.14,SE,140,6.0,12.0,64,-99.99,,,-99.99,,2015-07-05 18:23:00,
2015-07-05 14:34:00,90.0,76.0,30.14,SE,140,6.0,12.0,64,-99.99,,,-99.99,,2015-07-05 18:34:00,
2015-07-05 14:44:00,90.0,76.0,30.14,East,100,5.0,11.0,63,-99.99,,,-99.99,,2015-07-05 18:44:00,
2015-07-05 14:53:00,90.0,75.0,30.14,SSE,149,4.0,13.0,62,-99.99,,,-99.99,,2015-07-05 18:53:00,
2015-07-05 15:04:00,90.0,75.0,30.14,SSE,149,4.0,13.0,62,-99.99,,,-99.99,,2015-07-05 19:04:00,
2015-07-05 15:13:00,90.0,74.0,30.14,ESE,106,5.0,11.0,60,-99.99,,,-99.99,,2015-07-05 19:13:00,
2015-07-05 15:23:00,90.0,75.0,30.13,ESE,121,5.0,12.0,61,-99.99,,,-99.99,,2015-07-05 19:23:00,
2015-07-05 15:34:00,90.0,75.0,30.13,ESE,121,5.0,12.0,61,-99.99,,,-99.99,,2015-07-05 19:34:00,
2015-07-05 15:44:00,90.0,75.0,30.13,East,97,4.0,14.0,62,-99.99,,,-99.99,,2015-07-05 19:44:00,
2015-07-05 16:03:00,90.0,75.0,30.12,SE,140,7.0,13.0,61,-99.99,,,-99.99,,2015-07-05 20:03:00,
2015-07-05 16:13:00,90.0,75.0,30.12,ESE,121,5.0,14.0,62,-99.99,,,-99.99,,2015-07-05 20:13:00,
2015-07-05 16:23:00,90.0,75.0,30.11,SSE,160,5.0,12.0,61,-99.99,,,-99.99,,2015-07-05 20:23:00,
2015-07-05 16:33:00,90.0,75.0,30.11,SSE,160,5.0,12.0,61,-99.99,,,-99.99,,2015-07-05 20:33:00,
2015-07-05 16:44:00,90.0,75.0,30.11,SSE,164,4.0,12.0,61,-99.99,,,-99.99,,2015-07-05 20:44:00,
2015-07-05 16:53:00,90.0,73.0,30.11,SE,139,6.0,15.0,58,-99.99,,,-99.99,,2015-07-05 20:53:00,
2015-07-05 17:03:00,90.0,73.0,30.11,SE,139,6.0,15.0,58,-99.99,,,-99.99,,2015-07-05 21:03:00,
2015-07-05 17:13:00,89.0,74.0,30.11,SE,124,3.0,13.0,62,-99.99,,,-99.99,,2015-07-05 21:13:00,
2015-07-05 17:23:00,89.0,75.0,30.11,SE,128,4.0,14.0,63,-99.99,,,-99.99,,2015-07-05 21:23:00,
2015-07-05 17:34:00,89.0,75.0,30.11,SE,128,4.0,14.0,63,-99.99,,,-99.99,,2015-07-05 21:34:00,
2015-07-05 17:44:00,89.0,75.0,30.11,SE,133,2.0,13.0,63,-99.99,,,-99.99,,2015-07-05 21:44:00,
2015-07-05 17:54:00,88.0,74.0,30.11,East,88,7.0,14.0,64,-99.99,,,-99.99,,2015-07-05 21:54:00,
2015-07-05 18:04:00,88.0,74.0,30.11,East,88,7.0,14.0,64,-99.99,,,-99.99,,2015-07-05 22:04:00,
2015-07-05 18:13:00,88.0,76.0,30.10,ESE,121,4.0,13.0,67,-99.99,,,-99.99,,2015-07-05 22:13:00,
2015-07-05 18:23:00,88.0,76.0,30.10,East,101,5.0,14.0,67,-99.99,,,-99.99,,2015-07-05 22:23:00,
2015-07-05 18:34:00,88.0,76.0,30.10,East,101,5.0,14.0,67,-99.99,,,-99.99,,2015-07-05 22:34:00,
2015-07-05 18:44:00,87.0,75.0,30.10,ESE,121,6.0,12.0,67,-99.99,,,-99.99,,2015-07-05 22:44:00,
2015-07-05 18:53:00,87.0,75.0,30.10,ESE,121,5.0,11.0,68,-99.99,,,-99.99,,2015-07-05 22:53:00,
2015-07-05 19:04:00,87.0,75.0,30.10,ESE,121,5.0,11.0,68,-99.99,,,-99.99,,2015-07-05 23:04:00,
2015-07-05 19:13:00,87.0,75.0,30.11,SSE,157,5.0,14.0,68,-99.99,,,-99.99,,2015-07-05 23:13:00,
2015-07-05 19:23:00,86.0,75.0,30.11,ESE,114,3.0,9.0,71,-99.99,,,-99.99,,2015-07-05 23:23:00,
2015-07-05 19:33:00,86.0,75.0,30.11,ESE,114,3.0,9.0,71,-99.99,,,-99.99,,2015-07-05 23:33:00,
2015-07-05 19:43:00,86.0,76.0,30.11,SE,124,1.0,9.0,72,-99.99,,,-99.99,,2015-07-05 23:43:00,
2015-07-05 20:03:00,85.0,75.0,30.12,ESE,108,1.0,9.0,73,-99.99,,,-99.99,,2015-07-06 00:03:00,
2015-07-05 20:13:00,85.0,76.0,30.12,ESE,102,3.0,9.0,74,-99.99,,,-99.99,,2015-07-06 00:13:00,
2015-07-05 20:23:00,84.0,74.0,30.12,SE,141,5.0,10.0,73,-99.99,,,-99.99,,2015-07-06 00:23:00,
2015-07-05 20:34:00,84.0,74.0,30.12,SE,141,5.0,10.0,73,-99.99,,,-99.99,,2015-07-06 00:34:00,
2015-07-05 20:44:00,84.0,75.0,30.13,East,91,3.0,9.0,74,-99.99,,,-99.99,,2015-07-06 00:44:00,
2015-07-05 21:03:00,84.0,75.0,30.13,East,94,3.0,9.0,75,-99.99,,,-99.99,,2015-07-06 01:03:00,